Location: De Har
(53.3413°N, 6.6858°E)
Time: 20:41:54
(UTC+00:00)

GP-B - Pass Details

Date: 22 April 2026
Orbit: 617 x 621 km, 89.9° (Epoch: 21 May)

Event Time Altitude Azimuth Distance (km) Brightness Sun altitude
Rises 01:16:21 0° 357° (N) 2,910 7.5 -20.8°
Reaches altitude 10° 01:18:36 10° 353° (N) 1,999 6.4 -20.6°
Maximum altitude 01:22:52 52° 277° (W) 773 3.3 -20.3°
Enters shadow 01:23:32 47° 245° (WSW) 825 3.3 -20.3°
